Location: Peterborough
(44.3091°N, 78.3197°W)
Time: 22:57:52
(UTC-05:00)

Tiros 1 despin weight - Pass Details

Date: 03 December 2023
Orbit: 581 x 624 km, 48.2° (Epoch: 02 March)

Event Time Altitude Azimuth Distance (km) Brightness Sun altitude
Rises 20:06:35 0° 257° (WSW) 2,795 ? -37.1°
Reaches altitude 10° 20:08:52 10° 260° (W) 1,894 ? -37.5°
Enters shadow 20:09:11 12° 261° (W) 1,775 ? -37.6°
